Pine Ridge, SD

3:56 AM MDT on March 30, 2017 (GMT -0600)
Pine Ridge

Weather History for KIEN - October, 2014

Change the Weather History Date:

Thursday, October 9, 2014

  Actual Average Record
Temperature  
Mean Temperature 45 °F 51 °F  
Max Temperature 58 °F 67 °F 88 °F (2003)
Min Temperature 31 °F 35 °F 18 °F (2012)
Degree Days  
Heating Degree Days 20 14  
Month to date heating degree days 139 115  
Since 1 July heating degree days 361 337  
Cooling Degree Days 0 0  
Month to date cooling degree days 0 0  
Year to date cooling degree days 479 714  
Moisture  
Dew Point 39 °F    
Average Humidity 77    
Maximum Humidity 96    
Minimum Humidity 57    
Precipitation  
Precipitation 0.00 in 0.04 in 1.32 in (2010)
Month to date precipitation 0.29 0.38  
Year to date precipitation 21.13 15.78  
Sea Level Pressure  
Sea Level Pressure 30.16 in    
Wind  
Wind Speed 5 mph (ENE)    
Max Wind Speed 14 mph    
Max Gust Speed 19 mph    
Visibility 10 miles    
Events      
T = Trace of Precipitation, MM = Missing Value Source: NWS Daily Summary

Daily Weather History Graph

Daily Weather History Graph

Search for Another Location

Airport or City:

Trip Planner

Search our weather history database for the weather conditions in past years. The results will help you decide how hot, cold, wet, or windy it might be!

Date:

Astronomy

Oct. 09, 2014 Rise Set
Actual Time 6:56 AM MDT 6:17 PM MDT
Civil Twilight 6:28 AM MDT 6:45 PM MDT
Nautical Twilight 5:55 AM MDT 7:18 PM MDT
Astronomical Twilight 5:22 AM MDT 7:51 PM MDT
Moon 7:12 PM MDT (10/9) 8:15 AM MDT (10/9)
Length of Visible Light 12h 17m
Length of Day
11h 20m
Full, 98% of the Moon is Illuminated
Oct 9
Full
Oct 15
Last Quarter
Oct 23
New
Oct 30
First Quarter
Nov 6
Full

Hourly Weather History & Observations

Time (MDT) Temp. Windchill Dew Point Humidity Pressure Visibility Wind Dir Wind Speed Gust Speed Precip Events Conditions
12:52 AM 39.9 °F - 37.0 °F 89% 30.01 in 10.0 mi Calm Calm - N/A   Clear
1:52 AM 37.0 °F - 35.1 °F 93% 30.02 in 10.0 mi Calm Calm - N/A   Clear
2:52 AM 37.0 °F - 35.1 °F 93% 30.03 in 10.0 mi Calm Calm - N/A   Clear
3:52 AM 37.0 °F - 34.0 °F 89% 30.03 in 10.0 mi Calm Calm - N/A   Clear
4:52 AM 35.1 °F - 33.1 °F 92% 30.06 in 10.0 mi Calm Calm - N/A   Clear
5:52 AM 33.1 °F - 32.0 °F 96% 30.09 in 10.0 mi Calm Calm - N/A   Clear
6:52 AM 32.0 °F - 30.0 °F 92% 30.13 in 10.0 mi Calm Calm - N/A   Clear
7:52 AM 35.1 °F 32.2 °F 33.1 °F 92% 30.16 in 10.0 mi NNE 3.5 mph - N/A   Clear
8:52 AM 43.0 °F 41.3 °F 37.9 °F 82% 30.17 in 10.0 mi Variable 3.5 mph - N/A   Clear
9:52 AM 46.9 °F - 39.0 °F 74% 30.18 in 10.0 mi East 5.8 mph - N/A   Clear
10:52 AM 52.0 °F - 41.0 °F 66% 30.18 in 10.0 mi North - - N/A   Clear
11:52 AM 54.0 °F - 39.9 °F 59% 30.19 in 10.0 mi North 5.8 mph - N/A   Clear
12:52 PM 55.9 °F - 41.0 °F 57% 30.17 in 10.0 mi NE 9.2 mph - N/A   Clear
1:52 PM 57.0 °F - 42.1 °F 57% 30.17 in 10.0 mi NE 9.2 mph - N/A   Clear
2:52 PM 57.9 °F - 42.1 °F 56% 30.16 in 10.0 mi ENE 6.9 mph - N/A   Clear
3:52 PM 57.0 °F - 43.0 °F 59% 30.17 in 10.0 mi East 10.4 mph - N/A   Clear
4:52 PM 57.0 °F - 44.1 °F 62% 30.18 in 10.0 mi ENE 8.1 mph - N/A   Clear
5:52 PM 54.0 °F - 44.1 °F 69% 30.19 in 10.0 mi ENE 5.8 mph - N/A   Clear
6:52 PM 48.9 °F - 43.0 °F 80% 30.22 in 10.0 mi ENE 5.8 mph - N/A   Partly Cloudy
7:52 PM 48.9 °F - 42.1 °F 77% 30.24 in 10.0 mi ENE 5.8 mph - N/A   Clear
8:52 PM 48.0 °F - 42.1 °F 80% 30.24 in 10.0 mi ENE 5.8 mph - N/A   Overcast
9:52 PM 46.0 °F 42.5 °F 39.9 °F 79% 30.23 in 10.0 mi East 6.9 mph - N/A   Scattered Clouds
10:52 PM 42.1 °F 37.1 °F 39.0 °F 89% 30.25 in 10.0 mi ENE 8.1 mph - N/A   Clear
11:52 PM 39.9 °F - 37.9 °F 93% 30.25 in 10.0 mi Calm Calm - N/A   Mostly Cloudy